Regional Weather Roundup
Issued by NWS

Home | Current Version | Previous Version | Text Only | Print | Product List | Glossary Off
Versions: 1 2 3 4 5 6 7 8 9 10 11 12 13 14 15 16 17 18 19 20 21 22 23 24 25 26 27 28 29 30 31 32 33 34 35 36 37 38 39 40 41 42 43 44 45 46 47 48 49 50

000
ASUS43 KBIS 271701
RWRND

NORTH DAKOTA REGIONAL WEATHER ROUNDUP
NATIONAL WEATHER SERVICE BISMARCK ND
1200 PM CDT FRI MAR 27 2015

NOTE: "FAIR" INDICATES FEW OR NO CLOUDS BELOW 12,000 FEET WITH NO
SIGNIFICANT WEATHER AND/OR OBSTRUCTIONS TO VISIBILITY.


NDZ001>003-009>011-017-271800-
NORTHWEST NORTH DAKOTA

CITY           SKY/WX    TMP DP  RH WIND       PRES   REMARKS
WILLISTON      CLOUDY    47  35  63 W8        29.92S
MINOT          CLOUDY    33  27  78 S17       29.92F
MINOT AFB      CLOUDY    33  33  98 S15       29.92F
$$

NDZ018>021-031>035-040>046-271800-
SOUTHWEST NORTH DAKOTA

CITY           SKY/WX    TMP DP  RH WIND       PRES   REMARKS
BISMARCK       CLOUDY    30  24  78 S14       30.02F WCI  19
DICKINSON      MOSUNNY   55  37  50 NW15      29.90F
GARRISON         N/A     33  28  81 S15       29.94F
HETTINGER ARPT PTSUNNY   49  36  61 W10       29.95F
$$

NDZ004>008-012>016-024-026-027-054-271800-
NORTHEAST NORTH DAKOTA

CITY           SKY/WX    TMP DP  RH WIND       PRES   REMARKS
GRAND FORKS    CLOUDY    29  13  51 S13       30.16F WCI  19
GRND FRKS AFB  CLOUDY    29  15  55 S10       30.15F WCI  19
DEVILS LAKE    CLOUDY    27  21  80 S15       30.06F WCI  15
$$

NDZ022-023-025-028>030-036>039-047>053-271800-
SOUTHEAST NORTH DAKOTA

CITY           SKY/WX    TMP DP  RH WIND       PRES   REMARKS
FARGO          CLOUDY    31  10  41 S14       30.18F
JAMESTOWN      SNOW      26  22  84 S17       30.09F VSB 1/2 WCI  13
$$




USA.gov is the U.S. government's official web portal to all federal, state and local government web resources and services.